AirNav   Advertisement
 
 1643 users online  

4NK3 Evans Airways Airport
Evans, New York, USA

GOING TO EVANS?


FAA INFORMATION EFFECTIVE 14 SEPTEMBER 2017

Location

FAA Identifier: 4NK3
Lat/Long: 42-40-21.0000N / 078-58-01.1300W
42-40.350000N / 078-58.018833W
42.6725000 / -78.9669806
(estimated)
Elevation: 940 ft. / 287 m (estimated)
Variation: 10W (1995)
From city: 4 miles E of EVANS, NY
Time zone: UTC -4 (UTC -5 during Standard Time)
Zip code: 14006

Airport Operations

Airport use: Private use. Permission required prior to landing
Activation date: 02/1999
Control tower: no
ARTCC: CLEVELAND CENTER
FSS: BUFFALO FLIGHT SERVICE STATION
Attendance: UNATNDD
Wind indicator: yes
Segmented circle: no

Airport Communications

WX ASOS at DKK (17 nm SW): 119.275 (716-366-7664)
WX ASOS at BUF (19 nm NE): PHONE 716-635-0532

Nearby radio navigation aids

VOR radial/distance  VOR name  Freq  Var
DKKr058/17.4DUNKIRK VOR/DME116.2007W
BUFr231/20.9BUFFALO VOR/DME116.4008W
JHWr020/29.8JAMESTOWN VOR/DME114.7007W

 
NDB name  Hdg/Dist  Freq  Var  ID
PLAZZ218/13.820409WGB --. -...

Airport Services

Runway Information

Helipad H1

Dimensions: 50 x 50 ft. / 15 x 15 m
Surface: asphalt
Traffic pattern: leftleft

Runway 10/28

Dimensions: 2000 x 30 ft. / 610 x 9 m
Surface: turf
RUNWAY 10  RUNWAY 28
Traffic pattern: leftleft
Obstructions: none60 ft. pline, 1000 ft. from runway

Airport Ownership and Management from official FAA records

Ownership: Privately-owned
Owner: W J MILLIGAN
4995 SOUTHWESTERN BLVD
HAMBURG, NY 14075
Phone 716-648-5100
Manager: J M PRODUCTIONS INC
4995 SOUTHWESTERN BLVD
HAMBURG, NY 14075
Phone 716-648-5100
FACILITY LEASED TO ERIE COUNTY SHERIFF'S DEPT., 40 DELAWARE AVE, BUFFALO, NY.

Airport Operational Statistics

Aircraft based on the field: 4
Single engine airplanes: 2
Helicopters: 2
    

Instrument Procedures

There are no published instrument procedures at 4NK3.

Some nearby airports with instrument procedures:

9G0 - Buffalo Airfield (16 nm NE)
KDKK - Chautauqua County/Dunkirk Airport (17 nm SW)
KBUF - Buffalo Niagara International Airport (19 nm NE)
KIAG - Niagara Falls International Airport (26 nm N)
0G0 - North Buffalo Suburban Airport (28 nm NE)
 
Loc | Ops | Rwys | IFR | FBO | Links
Com | Nav | Svcs | Stats | Notes


 
Area around 4NK3 (Evans Airways Airport)
 
Road maps at: MapQuest Bing Google
 
Aerial photo
No photo
 
Sectional chart

 
Airport distance calculator
Flying to Evans Airways Airport? Find the distance to fly.

From to 4NK3

Sunrise and sunset
Times for 26-Sep-2017
 Local
(UTC-4)
 Zulu
(UTC)
Morning civil twilight06:4010:40
Sunrise07:0811:08
Sunset19:0623:06
Evening civil twilight19:3423:34

Current date and time
Zulu (UTC)  26-Sep-2017 18:56:55
Local (UTC-4)  26-Sep-2017 14:56:55
 
METAR
CWPC 
17nm NW 
261800Z AUTO 25006KT 24/20 RMK AO1 SLP157 T02440201 58010
KDKK 
17nm SW 
261753Z AUTO 29008KT 10SM CLR 28/18 A3000 RMK AO2 SLP154 T02830178 10289 20189 58009 $
KBUF 
19nm NE 
261754Z 24007KT 200V280 10SM CLR 31/18 A2999 RMK AO2 SLP149 T03060183 10306 20200 58011
KIAG 
27nm N 
261753Z 23007KT 10SM CLR 32/18 A2998 RMK AO2 SLP144 T03170178 10322 20217 58012
CYSN 
32nm N 
261800Z 34006KT 320V080 15SM FEW048 SCT250 31/22 A2995 RMK CU1CI2 SLP142 DENSITY ALT 2200FT
TAF
KBUF 
19nm NE 
261731Z 2618/2718 24007KT P6SM FEW045 FEW250 FM270000 20005KT P6SM FEW250 FM271400 22010KT P6SM FEW250 FM271600 23014G22KT P6SM SCT250
NOTAMs
Click for the latest NOTAMs
NOTAMs are issued by the DoD/FAA and will open in a separate window not controlled by AirNav.

 

 
 

Would you like to see your business listed on this page?

 If your business provides an interesting product or service to pilots, flight crews, aircraft, or users of the Evans Airways Airport, you should consider listing it here.  To start the listing process, click on the button below
 
Add a business
 

Other Pages about Evans Airways Airport

Update a link
 
Copyright © AirNav, LLC. All rights reserved. Privacy Policy  Contact